Wetterdaten: Woche 16.02.09 - 22.02.09 (KW8)
Datum Zeit Temp. Innen Temp. Aussen Feuchte Inne Feuchte Auss Luftdruck Regen ab 0,1 Wind
16.02.2009 00:00 15,5 C 1,3 C 41 % 89 % 1021,8 hPa 0,5 l/m 2,9 km/h (1 Bft)
16.02.2009 01:00 15,5 C 1,5 C 41 % 89 % 1021,6 hPa 0,0 l/m 1,7 km/h (1 Bft)
16.02.2009 02:00 15,5 C 1,7 C 42 % 90 % 1021,5 hPa 0,0 l/m 0,5 km/h (0 Bft)
16.02.2009 03:00 15,5 C 1,9 C 42 % 90 % 1020,6 hPa 0,0 l/m 0,3 km/h (0 Bft)
16.02.2009 04:00 15,5 C 2,1 C 42 % 90 % 1020,7 hPa 0,0 l/m 0,0 km/h (0 Bft)
16.02.2009 05:00 15,6 C 2,3 C 42 % 90 % 1021,2 hPa 0,0 l/m 0,0 km/h (0 Bft)
16.02.2009 06:00 15,6 C 2,6 C 42 % 90 % 1020,5 hPa 0,0 l/m 0,0 km/h (0 Bft)
16.02.2009 07:00 15,6 C 3,1 C 43 % 90 % 1020,7 hPa 0,5 l/m 0,2 km/h (0 Bft)
16.02.2009 08:00 15,7 C 3,6 C 44 % 90 % 1021,2 hPa 0,5 l/m 0,1 km/h (0 Bft)
16.02.2009 09:00 15,6 C 4,1 C 45 % 91 % 1021,5 hPa 0,0 l/m 0,3 km/h (0 Bft)
16.02.2009 10:00 15,6 C 4,8 C 46 % 91 % 1021,5 hPa 0,0 l/m 1,8 km/h (1 Bft)
16.02.2009 11:00 15,6 C 5,5 C 46 % 91 % 1021,5 hPa 0,0 l/m 0,7 km/h (0 Bft)
16.02.2009 12:00 15,6 C 5,9 C 47 % 91 % 1021,5 hPa 0,0 l/m 1,8 km/h (1 Bft)
16.02.2009 13:00 15,6 C 6,1 C 47 % 91 % 1021,3 hPa 0,0 l/m 0,1 km/h (0 Bft)
16.02.2009 14:00 15,6 C 6,5 C 47 % 91 % 1020,5 hPa 0,0 l/m 1,0 km/h (0 Bft)
16.02.2009 15:00 15,6 C 6,9 C 47 % 91 % 1020,5 hPa 0,0 l/m 1,1 km/h (1 Bft)
16.02.2009 16:00 15,6 C 6,9 C 47 % 90 % 1020,5 hPa 0,0 l/m 0,3 km/h (0 Bft)
16.02.2009 17:00 15,7 C 6,7 C 47 % 90 % 1020,5 hPa 1,0 l/m 0,3 km/h (0 Bft)
16.02.2009 18:00 15,8 C 6,5 C 48 % 90 % 1020,5 hPa 0,0 l/m 0,2 km/h (0 Bft)
16.02.2009 19:00 16,0 C 6,4 C 48 % 90 % 1019,8 hPa 0,0 l/m 2,0 km/h (1 Bft)
16.02.2009 20:00 16,1 C 6,4 C 48 % 90 % 1019,4 hPa 0,5 l/m 3,6 km/h (1 Bft)
16.02.2009 21:00 16,1 C 6,3 C 48 % 90 % 1018,5 hPa 0,5 l/m 2,5 km/h (1 Bft)
16.02.2009 22:00 16,1 C 6,3 C 48 % 90 % 1018,5 hPa 1,0 l/m 2,4 km/h (1 Bft)
16.02.2009 23:00 16,0 C 6,2 C 48 % 90 % 1017,6 hPa 1,0 l/m 1,9 km/h (1 Bft)
17.02.2009 00:00 16,0 C 6,3 C 48 % 91 % 1017,0 hPa 0,5 l/m 1,4 km/h (1 Bft)
17.02.2009 01:00 16,0 C 6,4 C 48 % 91 % 1016,5 hPa 1,0 l/m 3,5 km/h (1 Bft)
17.02.2009 02:00 15,9 C 6,5 C 48 % 91 % 1016,5 hPa 0,5 l/m 3,7 km/h (1 Bft)
17.02.2009 03:00 15,9 C 6,5 C 49 % 91 % 1015,6 hPa 1,0 l/m 2,1 km/h (1 Bft)
17.02.2009 04:00 15,9 C 6,4 C 49 % 91 % 1015,5 hPa 0,5 l/m 3,0 km/h (1 Bft)
17.02.2009 05:00 15,9 C 6,2 C 49 % 91 % 1015,5 hPa 0,0 l/m 2,1 km/h (1 Bft)
17.02.2009 06:00 16,0 C 6,0 C 49 % 91 % 1015,5 hPa 0,0 l/m 1,5 km/h (1 Bft)
17.02.2009 07:00 16,2 C 5,9 C 48 % 91 % 1015,9 hPa 0,5 l/m 4,8 km/h (1 Bft)
17.02.2009 08:00 16,2 C 5,9 C 48 % 91 % 1016,5 hPa 0,0 l/m 3,4 km/h (1 Bft)
17.02.2009 09:00 16,1 C 6,0 C 49 % 91 % 1017,2 hPa 0,0 l/m 1,5 km/h (1 Bft)
17.02.2009 10:00 16,0 C 6,3 C 49 % 91 % 1017,4 hPa 0,0 l/m 0,7 km/h (0 Bft)
17.02.2009 11:00 16,0 C 6,3 C 49 % 91 % 1018,0 hPa 0,0 l/m 0,2 km/h (0 Bft)
17.02.2009 12:00 16,2 C 6,2 C 49 % 91 % 1018,5 hPa 0,0 l/m 0,0 km/h (0 Bft)
17.02.2009 13:00 16,3 C 6,0 C 49 % 91 % 1018,6 hPa 0,0 l/m 0,0 km/h (0 Bft)
17.02.2009 14:00 16,3 C 5,6 C 48 % 91 % 1019,5 hPa 0,0 l/m 0,0 km/h (0 Bft)
17.02.2009 15:00 16,4 C 5,0 C 47 % 90 % 1020,7 hPa 0,0 l/m 0,0 km/h (0 Bft)
17.02.2009 16:00 16,3 C 4,0 C 45 % 89 % 1021,8 hPa 0,0 l/m 0,0 km/h (0 Bft)
17.02.2009 17:00 16,1 C 3,3 C 44 % 87 % 1022,8 hPa 0,0 l/m 0,0 km/h (0 Bft)
17.02.2009 18:00 16,1 C 2,5 C 43 % 86 % 1023,7 hPa 0,0 l/m 0,0 km/h (0 Bft)
17.02.2009 19:00 16,2 C 1,8 C 43 % 85 % 1024,6 hPa 0,0 l/m 0,0 km/h (0 Bft)
17.02.2009 20:00 16,1 C 0,7 C 41 % 83 % 1024,8 hPa 0,0 l/m 0,0 km/h (0 Bft)
17.02.2009 21:00 16,1 C -0,3 C 40 % 83 % 1025,5 hPa 0,0 l/m 0,0 km/h (0 Bft)
17.02.2009 22:00 16,0 C -0,4 C 40 % 83 % 1025,9 hPa 0,0 l/m 0,0 km/h (0 Bft)
17.02.2009 23:00 15,9 C -0,5 C 40 % 82 % 1026,6 hPa 0,0 l/m 0,1 km/h (0 Bft)
18.02.2009 00:00 15,8 C -0,5 C 38 % 78 % 1026,6 hPa 0,0 l/m 0,0 km/h (0 Bft)
18.02.2009 01:00 15,8 C -0,6 C 38 % 76 % 1027,2 hPa 0,0 l/m 0,0 km/h (0 Bft)
18.02.2009 02:00 15,7 C -0,8 C 38 % 76 % 1027,6 hPa 0,0 l/m 0,0 km/h (0 Bft)
18.02.2009 03:00 15,6 C -1,0 C 37 % 75 % 1027,6 hPa 0,0 l/m 0,0 km/h (0 Bft)
18.02.2009 04:00 15,6 C -1,2 C 37 % 76 % 1027,3 hPa 0,0 l/m 0,0 km/h (0 Bft)
18.02.2009 05:00 15,5 C -1,5 C 37 % 76 % 1027,5 hPa 0,0 l/m 0,0 km/h (0 Bft)
18.02.2009 06:00 15,4 C -1,6 C 36 % 77 % 1027,6 hPa 0,0 l/m 0,0 km/h (0 Bft)
18.02.2009 07:00 15,4 C -1,8 C 36 % 77 % 1027,6 hPa 0,0 l/m 0,0 km/h (0 Bft)
18.02.2009 08:00 15,3 C -1,5 C 36 % 77 % 1027,6 hPa 0,0 l/m 0,0 km/h (0 Bft)
18.02.2009 09:00 15,3 C -0,8 C 36 % 76 % 1027,6 hPa 0,0 l/m 0,0 km/h (0 Bft)
18.02.2009 10:00 15,3 C -0,1 C 36 % 74 % 1027,9 hPa 0,0 l/m 0,0 km/h (0 Bft)
18.02.2009 11:00 15,3 C 0,4 C 36 % 72 % 1027,9 hPa 0,0 l/m 0,0 km/h (0 Bft)
18.02.2009 12:00 15,3 C 1,1 C 36 % 69 % 1027,6 hPa 0,0 l/m 0,4 km/h (0 Bft)
18.02.2009 13:00 15,5 C 2,9 C 35 % 63 % 1027,0 hPa 0,0 l/m 0,3 km/h (0 Bft)
18.02.2009 14:00 15,6 C 3,5 C 35 % 60 % 1026,6 hPa 0,0 l/m 0,4 km/h (0 Bft)
18.02.2009 15:00 15,7 C 3,1 C 35 % 59 % 1026,6 hPa 0,0 l/m 0,0 km/h (0 Bft)
18.02.2009 16:00 15,7 C 2,6 C 35 % 59 % 1026,6 hPa 0,0 l/m 0,0 km/h (0 Bft)
18.02.2009 17:00 15,7 C 2,0 C 35 % 59 % 1026,6 hPa 0,0 l/m 0,0 km/h (0 Bft)
18.02.2009 18:00 15,7 C 1,4 C 35 % 62 % 1026,6 hPa 0,0 l/m 0,0 km/h (0 Bft)
18.02.2009 19:00 15,7 C 0,9 C 35 % 64 % 1026,6 hPa 0,0 l/m 0,0 km/h (0 Bft)
18.02.2009 20:00 15,7 C 0,6 C 35 % 66 % 1026,6 hPa 0,0 l/m 0,0 km/h (0 Bft)
18.02.2009 21:00 15,7 C 0,4 C 35 % 67 % 1026,6 hPa 0,0 l/m 0,0 km/h (0 Bft)
18.02.2009 22:00 15,7 C 0,1 C 35 % 68 % 1026,6 hPa 0,0 l/m 0,0 km/h (0 Bft)
18.02.2009 23:00 15,7 C -0,1 C 35 % 70 % 1026,6 hPa 0,0 l/m 0,0 km/h (0 Bft)
19.02.2009 00:00 15,6 C -0,1 C 35 % 72 % 1026,6 hPa 0,0 l/m 0,0 km/h (0 Bft)
19.02.2009 01:00 15,6 C -0,2 C 35 % 73 % 1026,6 hPa 0,0 l/m 0,0 km/h (0 Bft)
19.02.2009 02:00 15,6 C -0,2 C 35 % 75 % 1026,6 hPa 0,0 l/m 0,0 km/h (0 Bft)
19.02.2009 03:00 15,6 C -0,2 C 36 % 75 % 1026,6 hPa 0,0 l/m 0,0 km/h (0 Bft)
19.02.2009 04:00 15,6 C -0,4 C 36 % 77 % 1026,2 hPa 0,0 l/m 0,0 km/h (0 Bft)
19.02.2009 05:00 15,6 C -1,0 C 36 % 78 % 1026,3 hPa 0,0 l/m 0,0 km/h (0 Bft)
19.02.2009 06:00 15,5 C -1,0 C 36 % 78 % 1026,4 hPa 0,0 l/m 0,0 km/h (0 Bft)
19.02.2009 07:00 15,5 C -0,9 C 36 % 79 % 1026,5 hPa 0,0 l/m 0,0 km/h (0 Bft)
19.02.2009 08:00 15,5 C -0,7 C 36 % 79 % 1026,6 hPa 0,0 l/m 0,0 km/h (0 Bft)
19.02.2009 09:00 15,5 C 0,0 C 36 % 79 % 1026,6 hPa 0,0 l/m 0,0 km/h (0 Bft)
19.02.2009 10:00 15,4 C 1,0 C 36 % 77 % 1026,6 hPa 0,0 l/m 0,2 km/h (0 Bft)
19.02.2009 11:00 15,4 C 1,5 C 36 % 74 % 1026,6 hPa 0,0 l/m 0,0 km/h (0 Bft)
19.02.2009 12:00 15,3 C 2,0 C 36 % 71 % 1026,6 hPa 0,0 l/m 0,0 km/h (0 Bft)
19.02.2009 13:00 15,3 C 2,6 C 36 % 68 % 1026,6 hPa 0,0 l/m 0,2 km/h (0 Bft)
19.02.2009 14:00 15,2 C 3,2 C 36 % 66 % 1026,6 hPa 0,0 l/m 0,6 km/h (0 Bft)
19.02.2009 15:00 15,2 C 3,3 C 36 % 67 % 1026,6 hPa 0,0 l/m 0,7 km/h (0 Bft)
19.02.2009 16:00 15,5 C 2,7 C 36 % 74 % 1026,6 hPa 0,0 l/m 0,5 km/h (0 Bft)
19.02.2009 17:00 15,6 C 2,1 C 37 % 78 % 1026,6 hPa 0,0 l/m 0,0 km/h (0 Bft)
19.02.2009 18:00 15,6 C 1,6 C 38 % 81 % 1026,6 hPa 0,5 l/m 0,0 km/h (0 Bft)
19.02.2009 19:00 15,6 C 1,4 C 38 % 83 % 1026,6 hPa 0,0 l/m 0,0 km/h (0 Bft)
19.02.2009 20:00 15,6 C 1,5 C 38 % 85 % 1026,6 hPa 0,5 l/m 0,4 km/h (0 Bft)
19.02.2009 21:00 15,6 C 1,4 C 38 % 86 % 1026,6 hPa 0,0 l/m 0,8 km/h (0 Bft)
19.02.2009 22:00 15,6 C 1,8 C 39 % 87 % 1026,6 hPa 0,0 l/m 1,6 km/h (1 Bft)
19.02.2009 23:00 15,6 C 2,1 C 39 % 87 % 1026,6 hPa 0,0 l/m 0,1 km/h (0 Bft)
20.02.2009 00:00 15,7 C 2,4 C 40 % 88 % 1026,6 hPa 0,0 l/m 1,1 km/h (0 Bft)
20.02.2009 01:00 15,7 C 2,7 C 40 % 88 % 1026,4 hPa 0,0 l/m 0,9 km/h (0 Bft)
20.02.2009 02:00 15,7 C 2,9 C 40 % 88 % 1025,6 hPa 0,0 l/m 0,8 km/h (0 Bft)
20.02.2009 03:00 15,7 C 3,2 C 40 % 89 % 1025,6 hPa 0,0 l/m 2,9 km/h (1 Bft)
20.02.2009 04:00 15,7 C 3,5 C 41 % 89 % 1025,5 hPa 0,0 l/m 2,2 km/h (1 Bft)
20.02.2009 05:00 15,8 C 3,8 C 41 % 89 % 1025,5 hPa 0,0 l/m 1,5 km/h (1 Bft)
20.02.2009 06:00 15,8 C 4,2 C 42 % 90 % 1025,5 hPa 0,0 l/m 0,4 km/h (0 Bft)
20.02.2009 07:00 15,9 C 4,4 C 42 % 90 % 1025,6 hPa 0,5 l/m 2,6 km/h (1 Bft)
20.02.2009 08:00 15,9 C 4,4 C 42 % 90 % 1025,6 hPa 0,0 l/m 2,2 km/h (1 Bft)
20.02.2009 09:00 15,9 C 4,6 C 42 % 90 % 1026,2 hPa 0,0 l/m 5,3 km/h (1 Bft)
20.02.2009 10:00 15,8 C 5,0 C 43 % 90 % 1026,5 hPa 0,0 l/m 3,4 km/h (1 Bft)
20.02.2009 11:00 15,7 C 5,4 C 44 % 90 % 1026,5 hPa 0,0 l/m 2,3 km/h (1 Bft)
20.02.2009 12:00 15,8 C 6,0 C 44 % 89 % 1026,5 hPa 0,0 l/m 0,9 km/h (0 Bft)
20.02.2009 13:00 15,8 C 6,2 C 44 % 88 % 1026,5 hPa 0,0 l/m 1,8 km/h (1 Bft)
20.02.2009 14:00 15,8 C 6,2 C 45 % 89 % 1026,5 hPa 0,5 l/m 1,6 km/h (1 Bft)
20.02.2009 15:00 15,8 C 6,2 C 45 % 89 % 1026,5 hPa 0,0 l/m 2,1 km/h (1 Bft)
20.02.2009 16:00 15,8 C 6,2 C 45 % 89 % 1027,2 hPa 0,0 l/m 2,2 km/h (1 Bft)
20.02.2009 17:00 15,9 C 5,8 C 46 % 87 % 1027,9 hPa 0,0 l/m 0,5 km/h (0 Bft)
20.02.2009 18:00 16,1 C 5,4 C 50 % 87 % 1028,5 hPa 0,0 l/m 0,3 km/h (0 Bft)
20.02.2009 19:00 16,3 C 5,2 C 49 % 87 % 1028,7 hPa 0,0 l/m 0,6 km/h (0 Bft)
20.02.2009 20:00 16,2 C 4,9 C 48 % 87 % 1029,5 hPa 0,0 l/m 0,5 km/h (0 Bft)
20.02.2009 21:00 16,2 C 4,8 C 47 % 86 % 1029,5 hPa 0,0 l/m 0,5 km/h (0 Bft)
20.02.2009 22:00 16,2 C 4,7 C 46 % 86 % 1030,4 hPa 0,0 l/m 0,5 km/h (0 Bft)
20.02.2009 23:00 16,1 C 4,6 C 46 % 86 % 1030,4 hPa 0,0 l/m 0,0 km/h (0 Bft)
21.02.2009 00:00 16,0 C 4,3 C 46 % 87 % 1030,6 hPa 0,5 l/m 0,0 km/h (0 Bft)
21.02.2009 01:00 16,0 C 4,3 C 46 % 88 % 1030,6 hPa 0,0 l/m 0,0 km/h (0 Bft)
21.02.2009 02:00 16,0 C 4,3 C 46 % 88 % 1030,6 hPa 0,0 l/m 0,0 km/h (0 Bft)
21.02.2009 03:00 16,2 C 4,2 C 46 % 89 % 1030,6 hPa 0,0 l/m 0,0 km/h (0 Bft)
21.02.2009 04:00 16,2 C 3,6 C 46 % 89 % 1030,6 hPa 0,0 l/m 0,0 km/h (0 Bft)
21.02.2009 05:00 16,2 C 3,0 C 45 % 89 % 1030,6 hPa 0,0 l/m 0,0 km/h (0 Bft)
21.02.2009 06:00 16,2 C 3,3 C 46 % 89 % 1030,6 hPa 0,0 l/m 0,0 km/h (0 Bft)
21.02.2009 07:00 16,2 C 3,4 C 48 % 89 % 1030,6 hPa 0,0 l/m 0,0 km/h (0 Bft)
21.02.2009 08:00 16,2 C 3,7 C 49 % 89 % 1030,6 hPa 0,0 l/m 0,0 km/h (0 Bft)
21.02.2009 09:00 16,2 C 4,2 C 48 % 89 % 1030,6 hPa 0,0 l/m 0,1 km/h (0 Bft)
21.02.2009 10:00 16,3 C 4,8 C 48 % 89 % 1030,6 hPa 0,0 l/m 0,1 km/h (0 Bft)
21.02.2009 11:00 16,3 C 5,7 C 47 % 88 % 1031,5 hPa 0,0 l/m 0,1 km/h (0 Bft)
21.02.2009 12:00 16,4 C 6,9 C 47 % 83 % 1031,5 hPa 0,0 l/m 0,5 km/h (0 Bft)
21.02.2009 13:00 16,5 C 7,5 C 46 % 77 % 1030,7 hPa 0,0 l/m 0,2 km/h (0 Bft)
21.02.2009 14:00 16,6 C 7,9 C 46 % 72 % 1030,5 hPa 0,0 l/m 0,5 km/h (0 Bft)
21.02.2009 15:00 16,6 C 7,4 C 45 % 73 % 1030,5 hPa 0,0 l/m 0,1 km/h (0 Bft)
21.02.2009 16:00 16,6 C 7,0 C 45 % 75 % 1030,5 hPa 0,0 l/m 0,0 km/h (0 Bft)
21.02.2009 17:00 16,7 C 6,5 C 45 % 77 % 1029,7 hPa 0,0 l/m 0,0 km/h (0 Bft)
21.02.2009 18:00 16,7 C 6,1 C 45 % 78 % 1029,5 hPa 0,0 l/m 0,0 km/h (0 Bft)
21.02.2009 19:00 16,7 C 5,7 C 45 % 79 % 1029,1 hPa 0,0 l/m 0,0 km/h (0 Bft)
21.02.2009 20:00 16,7 C 5,6 C 45 % 80 % 1028,5 hPa 0,0 l/m 0,1 km/h (0 Bft)
21.02.2009 21:00 16,7 C 5,5 C 45 % 80 % 1028,5 hPa 0,0 l/m 0,0 km/h (0 Bft)
21.02.2009 22:00 16,7 C 5,6 C 44 % 81 % 1028,0 hPa 0,0 l/m 1,4 km/h (1 Bft)
21.02.2009 23:00 16,6 C 5,4 C 45 % 83 % 1027,4 hPa 0,5 l/m 0,0 km/h (0 Bft)
22.02.2009 00:00 16,6 C 5,4 C 45 % 85 % 1026,7 hPa 0,0 l/m 0,2 km/h (0 Bft)
22.02.2009 01:00 16,5 C 5,4 C 45 % 86 % 1025,4 hPa 0,5 l/m 1,7 km/h (1 Bft)
22.02.2009 02:00 16,4 C 5,3 C 46 % 87 % 1024,5 hPa 0,5 l/m 1,5 km/h (1 Bft)
22.02.2009 03:00 16,4 C 5,4 C 46 % 88 % 1024,4 hPa 0,0 l/m 2,7 km/h (1 Bft)
22.02.2009 04:00 16,4 C 5,6 C 46 % 87 % 1023,5 hPa 0,0 l/m 3,3 km/h (1 Bft)
22.02.2009 05:00 16,3 C 5,6 C 46 % 86 % 1023,5 hPa 0,0 l/m 1,5 km/h (1 Bft)
22.02.2009 06:00 16,4 C 5,7 C 46 % 86 % 1022,6 hPa 0,0 l/m 0,4 km/h (0 Bft)
22.02.2009 07:00 16,6 C 5,8 C 46 % 86 % 1022,5 hPa 0,0 l/m 0,8 km/h (0 Bft)
22.02.2009 08:00 16,5 C 5,8 C 46 % 86 % 1022,0 hPa 0,0 l/m 1,0 km/h (0 Bft)
22.02.2009 09:00 16,4 C 6,1 C 46 % 86 % 1021,7 hPa 0,0 l/m 3,4 km/h (1 Bft)
22.02.2009 10:00 16,4 C 6,3 C 47 % 86 % 1021,5 hPa 0,0 l/m 3,5 km/h (1 Bft)
22.02.2009 11:00 16,4 C 6,3 C 47 % 88 % 1021,5 hPa 0,0 l/m 2,9 km/h (1 Bft)
22.02.2009 12:00 16,4 C 6,5 C 47 % 89 % 1021,5 hPa 0,0 l/m 3,1 km/h (1 Bft)
22.02.2009 13:00 16,3 C 6,7 C 48 % 90 % 1021,2 hPa 0,0 l/m 2,5 km/h (1 Bft)
22.02.2009 14:00 16,3 C 6,9 C 48 % 90 % 1020,5 hPa 0,0 l/m 3,6 km/h (1 Bft)
22.02.2009 15:00 16,3 C 7,3 C 48 % 90 % 1020,5 hPa 0,0 l/m 1,1 km/h (0 Bft)
22.02.2009 16:00 16,4 C 7,7 C 48 % 89 % 1020,5 hPa 0,0 l/m 1,8 km/h (1 Bft)
22.02.2009 17:00 16,4 C 7,6 C 48 % 88 % 1020,4 hPa 0,0 l/m 1,9 km/h (1 Bft)
22.02.2009 18:00 16,4 C 7,4 C 48 % 88 % 1020,5 hPa 0,5 l/m 2,8 km/h (1 Bft)
22.02.2009 19:00 16,6 C 6,9 C 48 % 88 % 1020,5 hPa 0,0 l/m 0,8 km/h (0 Bft)
22.02.2009 20:00 16,7 C 6,5 C 48 % 88 % 1020,5 hPa 0,0 l/m 0,5 km/h (0 Bft)
22.02.2009 21:00 16,7 C 6,2 C 48 % 88 % 1020,5 hPa 0,0 l/m 1,6 km/h (1 Bft)
22.02.2009 22:00 16,6 C 6,0 C 48 % 88 % 1020,5 hPa 0,0 l/m 2,1 km/h (1 Bft)
22.02.2009 23:00 16,4 C 5,7 C 47 % 87 % 1020,6 hPa 0,0 l/m 1,4 km/h (1 Bft)
Min-Datum _ 18.02.09 18.02.09 18.02.09 18.02.09 17.02.09 - 16.02.09
_ Min-Zeit 09:38 07:30 22:04 14:56 03:02 - 00:06
Minimum _ 15,2 C -1,9 C 34 % 58 % 1015,5 hPa - 0,0 km/h (0 Bft)
Max-Datum _ 21.02.09 21.02.09 20.02.09 16.02.09 21.02.09 16.02.09 16.02.09
_ Max-Zeit 19:10 14:08 18:24 13:52 10:54 17:00 20:00
Maximum _ 16,8 C 8,1 C 50 % 92 % 1031,5 hPa 1,0 l/m 24,8 km/h
N-NW (4 Bft)
Durchschnitt _ 15,9 C 3,8 C 43 % 84 % 1024,7 hPa #14,5 l/m 0,9 km/h (0 Bft)
© 2012 W. Hausmann